Location: Chimay
(50.0486°N, 4.3171°E)
Time: 06:39:33
(UTC+00:00)

Cosmos 2173 Rocket - Pass Details

Date: 08 August 2020
Orbit: 945 x 1000 km, 83.0° (Epoch: 26 September)

Event Time Altitude Azimuth Distance (km) Brightness Sun altitude
Exits shadow 22:21:05 34° 191° (S) 1,523 4.6 -21.4°
Maximum altitude 22:23:58 87° 278° (W) 969 3.9 -21.6°
Drops below altitude 10° 22:30:08 10° 9° (N) 2,690 7.2 -21.9°
Sets 22:32:37 0° 10° (N) 3,635 8.0 -22.1°
